Location: ??? ???
(30.7367°N, 60.5206°E)
Time: 00:25:01
(UTC+00:00)

Daily predictions for brighter satellites

Satellite Brightness Start Highest point End
(mag) Time Altitude Azimuth Time Altitude Azimuth Time Altitude Azimuth
SL-16 R/B 4.0 00:29:55 10° SSE 00:34:43 30° ESE 00:39:32 10° NE
Lacrosse 4 Rocket 2.8 00:40:06 34° NE 00:40:06 34° NE 00:42:47 10° NE
ATLAS 5 CENTAUR R/B 4.4 00:39:55 12° NE 00:41:22 14° ENE 00:44:22 10° ESE
Cosmos 2278 Rocket 3.2 00:39:03 21° N 00:42:24 43° ENE 00:47:45 10° SE
ADEOS 4.1 00:38:42 10° NNE 00:49:12 10° SSW 00:42:24 48° NNE
Cosmos 2237 Rocket 3.0 00:46:17 38° N 00:46:17 38° N 00:49:50 10° NNE
Cosmos 1898 Rocket 3.5 00:47:04 68° NNE 00:47:38 78° ENE 00:52:47 10° SSE
OAO 2 Rocket 3.6 00:49:48 55° NNE 00:49:48 55° NNE 00:54:18 10° E
Cosmos 1570 Rocket 4.0 01:01:16 60° NW 01:01:16 60° NW 01:06:00 10° N
NOSS 3-2 (A) 3.1 01:02:47 22° SSW 01:06:26 88° NW 01:12:27 10° NNE
FALCON 9 DEB 3.7 01:10:07 50° ESE 01:10:07 50° ESE 01:12:58 10° NE
ATLAS CENTAUR R/B 2.9 01:12:41 21° N 01:12:41 21° N 01:14:04 10° NNE
Atlas Centaur 2 2.9 01:09:04 39° W 01:12:18 88° S 01:20:48 10° E
Meteor 1-21 Rocket 4.5 01:06:32 10° N 01:12:19 72° E 01:18:10 10° SSE
Aurora 2 Rocket 3.4 01:11:42 35° SSW 01:12:52 42° S 01:18:14 10° ESE
Cosmos 1814 Rocket 4.0 01:13:02 46° WSW 01:13:53 52° WNW 01:18:53 10° N
H-2A R/B 3.3 01:11:19 10° NNE 01:14:59 56° E 01:18:41 10° S
Cosmos 1937 Rocket 3.3 01:13:16 26° NNW 01:16:17 78° WSW 01:21:27 10° S
COSMO-SKYMED 1 2.8 01:12:19 10° SSE 01:16:37 71° ENE 01:20:57 10° N
NOSS 3-2 (C) 3.6 01:13:19 10° SSW 01:18:37 63° ESE 01:24:28 10° NE
ERS-2 3.3 01:16:11 10° SSE 01:19:38 43° ENE 01:23:06 10° N
USA 267 3.7 01:13:58 10° SSE 01:20:03 42° SW 01:22:26 31° W
FALCON 9 DEB 2.9 01:21:07 71° NE 01:21:07 71° NE 01:23:57 10° NE
Envisat 3.7 01:19:45 10° NNE 01:24:43 54° E 01:29:41 10° S
Cosmos 2208 Rocket 4.3 01:20:38 10° SW 01:25:49 45° WNW 01:31:02 10° N
USA 307 4.1 01:26:57 26° NNW 01:26:57 26° NNW 01:29:50 10° NNE
CZ-2C R/B 1.8 01:27:12 37° NW 01:28:14 45° N 01:32:10 10° ENE
Cosmos 1300 4.3 01:25:05 10° SSE 01:28:35 37° E 01:32:06 10° NNE
Meteor PRIRODA 3.6 01:29:34 10° N 01:33:07 56° WNW 01:36:40 10° SSW
CENTAUR R/B 2.3 01:28:07 10° SSW 01:33:35 90° W 01:40:01 10° NNE
USA 305 4.3 01:34:07 22° NNW 01:34:07 22° NNW 01:36:59 10° NNE
Cosmos 2228 4.4 01:30:45 10° SSE 01:34:43 40° E 01:38:42 10° NNE
USA 308 4.2 01:35:25 23° NW 01:35:25 23° NW 01:38:36 10° NNE
Delta 142 3.6 01:33:29 32° WSW 01:35:12 61° S 01:39:38 10° ESE
H-2A R/B 4.1 01:37:41 10° SW 01:38:30 13° SW 01:38:30 13° SW
Lacrosse 5 rocket 1.9 01:39:04 16° NNW 01:41:53 46° NE 01:45:23 10° SE
SL-8 R/B 3.8 01:39:29 21° NW 01:42:40 75° NE 01:47:28 10° SE
CZ-4B R/B 2.1 01:40:46 10° SSW 01:43:53 34° W 01:44:42 29° WNW
BREEZE-M DEB (TANK) 3.1 01:35:59 10° SW 01:44:14 65° NW 01:47:00 10° NE
PSLV R/B 4.1 01:40:46 10° SSE 01:44:50 77° ENE 01:48:58 10° N
USA 306 4.4 01:45:46 18° NW 01:45:49 18° NW 01:48:49 10° N
Cosmos 1400 Rocket 3.6 01:47:33 10° SW 01:51:08 30° WNW 01:54:47 10° NNW
SAR-Lupe-4 3.5 01:47:41 10° SSE 01:51:15 88° WSW 01:54:51 10° NNW
Cosmos 1626 Rocket 3.8 01:50:00 10° NNW 01:54:17 48° W 01:58:33 10° SSW
Cosmos 1328 3.6 01:51:11 10° N 01:55:06 81° W 01:59:00 10° S
Cosmos 1908 4.4 01:53:21 10° SW 01:56:15 21° WNW 01:59:10 10° NNW
SL-4 R/B 4.1 01:56:37 10° NNW 01:56:48 10° NNW 01:57:20 10° NNW
SEDSat Delta rocket 4.1 01:52:45 15° W 01:58:38 90° ENE 02:05:20 10° E
Cosmos 1689 Rocket 1.9 01:56:47 10° S 01:59:39 69° WSW 02:02:33 10° NNW
CZ-4B R/B 3.8 01:56:52 10° NNW 01:59:45 22° WNW 02:02:44 10° SW
Spot 2 4.1 01:56:10 10° NNE 02:00:13 78° ESE 02:04:24 10° S
USA 238 DEB 3.9 01:54:31 10° SW 02:00:39 43° NW 02:07:02 10° NNE
USA 238 3.9 01:54:37 10° SW 02:00:45 44° NW 02:07:09 10° NNE
Cosmos 44 Rocket 4.1 01:57:20 14° NW 02:01:16 35° WSW 02:05:55 10° S
PSLV R/B 3.8 01:58:01 10° N 02:02:01 63° WNW 02:06:02 10° SSW
FALCON 9 DEB 4.1 02:02:41 18° WNW 02:03:55 23° NW 02:06:28 10° NNE
SKYMED 2 4.5 02:00:59 10° SSW 02:04:42 28° W 02:08:26 10° NW
SAR-Lupe-1 4.2 02:04:04 10° S 02:07:31 50° W 02:11:01 10° NNW
Cosmos 2279 Rocket 4.1 02:01:42 10° S 02:07:55 82° E 02:14:11 10° N
Cosmos 1092 Rocket 4.0 02:02:35 10° NNW 02:08:40 64° W 02:14:46 10° S
FALCON 9 DEB 4.1 02:08:03 14° W 02:09:58 24° NW 02:12:35 10° NNE
SMAP 3.2 02:06:11 10° NNE 02:10:51 78° ESE 02:15:29 10° S
CZ-2C R/B 3.5 02:06:09 10° SSE 02:11:09 51° ENE 02:16:16 10° N
Cosmos 1340 3.5 02:09:50 10° NNW 02:13:07 29° W 02:16:25 10° SSW
ERBS 2.4 02:12:43 10° SW 02:15:55 48° NW 02:19:05 10° NNE
Cosmos 1943 Rocket 3.5 02:10:36 10° N 02:15:56 41° ENE 02:21:14 10° SE
DELTA 4 R/B 3.1 02:16:05 10° SSW 02:16:53 12° S 02:17:38 10° SE
Lacrosse 4 Rocket 3.3 02:16:31 10° WNW 02:17:38 11° NW 02:18:59 10° NW
Cosmos 2369 Rocket 4.4 02:13:33 10° N 02:17:57 23° ENE 02:22:20 10° ESE
SL-16 R/B 3.0 02:13:51 10° WSW 02:18:41 29° WNW 02:23:33 10° N
Cosmos 1758 Rocket 3.5 02:14:23 10° N 02:18:50 70° W 02:23:13 10° S
Cosmos 2058 Rocket 3.6 02:18:43 10° S 02:23:02 64° E 02:27:24 10° NNE
FALCON 9 R/B 2.3 02:21:35 10° W 02:24:45 19° SSW 02:26:27 10° SSE
Cosmos 1943 3.9 02:19:38 10° S 02:25:13 63° ESE 02:30:52 10° NNE
Cosmos 2278 Rocket 3.5 02:22:10 10° WNW 02:26:04 19° W 02:29:56 10° SW
Cosmos 1726 Rocket 3.5 02:22:34 10° SSW 02:26:50 62° W 02:31:06 10° N
Cosmos 1634 Rocket 4.4 02:21:52 10° SSW 02:27:31 38° W 02:33:13 10° NNW
Cosmos 2150 Rocket 4.1 02:23:08 10° NNW 02:28:28 68° WSW 02:33:51 10° S
YAOGAN 6 4.0 02:26:24 10° NNW 02:29:08 20° WNW 02:31:51 10° WSW
TIMED 4.5 02:25:09 10° SSW 02:29:30 82° WNW 02:33:53 10° NNE
CZ-4B R/B 3.3 02:23:51 10° NNE 02:29:30 90° NW 02:35:01 10° SSW
